Location: Namasale
(1.5000°N, 32.6167°E)
Time: 23:59:14
(UTC+00:00)

Vanguard 3 - Pass Details

Date: 05 December 2021
Orbit: 508 x 3260 km, 33.3° (Epoch: 27 January)

Event Time Altitude Azimuth Distance (km) Brightness Sun altitude
Exits shadow 03:13:06 - 305° (NW) 6,629 11.1 -6.8°
Reaches altitude 10° 03:16:51 10° 314° (NW) 6,168 11.0 -5.9°
Maximum altitude 03:27:58 17° 350° (N) 5,184 10.9 -3.4°
Drops below altitude 10° 03:37:30 10° 26° (NNE) 5,187 11.3 -1.2°
Sets 03:43:14 0° 45° (NE) 5,683 11.8 0.2°
